Погода в Полозаозерье

Россия / Тюменская область     55°53′16″N   68°17′28″E
темп.,
°C
ветер,
м/с
пор.,
м/с
влажн.,
%
обл.,
%
осадки,
мм/ч
давл.,
гПа
погр.,
м
13 августа, сб
сб1323:00+16з41167100 0.0 1013327
02:00+15з41066100 0.0 1012259
05:00+14зюз4107577 0.0 1011185
08:00+17зюз6116624 0.0 1010444
11:00+22з8115368 0.0 10091436
14:00+23з912599 0.4 10071553
17:00+23сз81351100 1.1 10072405
20:00+18зсз714543 0.0 1009663
14 августа, вс
вс1423:00+15сз613590 0.0 1010548
02:00+13зсз613730 0.0 1012577
05:00+11сз613789 0.0 1013425
08:00+14сз610650 0.0 1015698
11:00+18сз810482 0.0 10151741
14:00+17сз6949100 0.0 10152047
17:00+17сз61048100 0.0 10162011
20:00+13сз34695 0.0 101745
15 августа, пн
пн1523:00+10сз47755 0.0 1018131
02:00+9сз38865 0.0 1018145
05:00+7сз38925 0.0 1020150
08:00+12ссз58665 0.0 1020538
11:00+16ссз574517 0.0 10201782
14:00+18сз674051 0.0 10202165
17:00+18сз574055 0.0 10202207
20:00+14ссз365878 0.0 1020161
16 августа, вт
вт1623:00+13ссв245896 0.0 102188
02:00+10с22665 0.0 102132
05:00+8зсз227449 0.0 102211
08:00+14сз355350 0.0 1022370
11:00+18зсз56421 0.0 10201793
14:00+20зсз674018 0.0 10191923
17:00+20зсз694398 0.0 10172188
20:00+16зсз49667 0.1 1017246
17 августа, ср
ср1723:00+11зсз47875 0.1 101797
02:00+11ссз367699 0.0 1016143
05:00+9ссз48905 0.1 1016176
08:00+11ссз610685 0.0 1017695
11:00+14ссз8946100 0.1 10172186
14:00+13ссз8945100 0.0 10171964
17:00+13ссз7104739 0.1 10181946
20:00+9ссз497783 0.2 1018266